{"data":{"norad_id":59353,"epoch":"2026-05-25T02:44:03.215904Z","epoch_age_seconds":72160,"freshness":"FRESH","line1":"1 59353U 24060F   26145.11392611 -.00000058  00000+0  74271-5 0  9998","line2":"2 59353  43.0033 188.0272 0001745 280.2038  79.8617 15.27581018121750","mean_motion":15.27581018,"eccentricity":0.0001745,"inclination_deg":43.0033,"raan_deg":188.0272,"arg_perigee_deg":280.2038,"mean_anomaly_deg":79.8617,"bstar":7.4271e-6,"rev_number":12175,"period_min":94.266685893056,"perigee_km":481.84877134128,"apogee_km":484.24332422496,"semimajor_km":6861.1830477831,"source":"CELESTRAK","updated_at":"2026-05-25T13:38:18.909167Z"}}